Tracking 20093 objects as of 15-Dec-2019
HD Live streaming from Space Station
objects crossing your sky now

COSMOS 2251 DEB

Track COSMOS 2251 DEB now!
10-day predictions


NORAD ID: 33757
Int'l Code: 1993-036E
Perigee: 781.3 km
Apogee: 803.0 km
Inclination: 74.0 °
Period: 100.6 minutes
Semi major axis: 7163 km
RCS: 0.1374 m2 (medium)
Launch date: June 16, 1993
Source: Commonwealth of Independent States (former USSR) (CIS)
Launch site: PLESETSK MISSILE AND SPACE COMPLEX (PKMTR)

Note: This is SATELLITE DEBRIS
aabbcc
Your satellite tracking list
Your tracking list is empty




NASA's NSSDC Master Catalog

Two Line Element Set (TLE):
1 33757U 93036E   19348.81777176 -.00000013 +00000-0 +49431-5 0  9996
2 33757 074.0368 358.9099 0015158 191.9427 340.8313 14.32024273566446
Source of the keplerian elements: AFSPC